Regional Weather Roundup
Issued by NWS

Home | Current Version | Previous Version | Graphics & Text | Print | Product List | Glossary On
Versions: 1 2 3 4 5 6 7 8 9 10 11 12 13 14 15 16 17 18 19 20 21 22 23 24 25 26 27 28 29 30 31 32 33 34 35 36 37 38 39 40 41 42 43 44 45 46 47 48 49 50
000
ASUS43 KOAX 232202
RWRNE

WEATHER ROUNDUP FOR NEBRASKA
NATIONAL WEATHER SERVICE OMAHA NE
500 PM CDT SAT MAY 23 2015

NOTES: SATELLITE DATA IS BEING USED TO AUGMENT CLOUD COVER ABOVE
       12000 FEET.
       "FAIR" INDICATES FEW OR NO CLOUDS BELOW 12,000 FEET WITH NO
       SIGNIFICANT WEATHER AND/OR OBSTRUCTIONS TO VISIBILITY.

  * THESE STATIONS DO NOT REPORT WEATHER SUCH AS RAIN...SNOW OR FOG.

NEZ001>004-019>022-054>056-232300-
NEBRASKA PANHANDLE

CITY           SKY/WX    TMP DP  RH WIND       PRES   REMARKS
SCOTTSBLUFF    CLOUDY    57  53  86 SE15      29.94F
ALLIANCE       CLOUDY    54  53  97 SE13      29.96F
CHADRON        CLOUDY    58  55  90 E13       29.97S
SIDNEY         CLOUDY    57  53  86 SE17      29.93S
$$

NEZ057>060-069>072-079>082-232300-
SOUTHWEST NEBRASKA

CITY           SKY/WX    TMP DP  RH WIND       PRES   REMARKS
NORTH PLATTE   CLOUDY    61  54  77 E14       29.98F
IMPERIAL       PTSUNNY   64  52  64 SE16      29.92F
LEXINGTON      CLOUDY    59  57  94 E13       29.99F
MCCOOK         CLOUDY    67  54  63 SE18      29.93F
$$

NEZ005>010-023>029-035>040-094-232300-
NORTH CENTRAL NEBRASKA

CITY           SKY/WX    TMP DP  RH WIND       PRES   REMARKS
VALENTINE      CLOUDY    60  53  77 E16       30.02F
AINSWORTH      CLOUDY    57  54  89 SE14      30.04F
BROKEN BOW     CLOUDY    58  54  86 E14G25    30.02F
ORD            CLOUDY    58  53  84 SE9       30.04F
$$

NEZ041-046>049-061>064-073>077-083>087-232300-
SOUTH CENTRAL NEBRASKA

CITY           SKY/WX    TMP DP  RH WIND       PRES   REMARKS
GRAND ISLAND   CLOUDY    60  56  86 E8        30.06F
HASTINGS       CLOUDY    59  56  89 E14       30.02F
KEARNEY *      CLOUDY    57  55  94 E16       30.02F
$$

NEZ011>018-030>034-042>045-232300-
NORTHEAST NEBRASKA

CITY           SKY/WX    TMP DP  RH WIND       PRES   REMARKS
NORFOLK        CLOUDY    60  55  83 SE8       30.09F
BLAIR          CLOUDY    63  56  78 E5        30.11F
COLUMBUS *     CLOUDY    61  54  77 E8        30.12F
FREMONT        CLOUDY    62  58  85 E7        30.11F
TEKAMAH        CLOUDY    63  57  81 SE7       30.12F
$$

NEZ050>053-065>068-078-088>093-232300-
SOUTHEAST NEBRASKA

CITY           SKY/WX    TMP DP  RH WIND       PRES   REMARKS
LINCOLN        CLOUDY    62  59  90 SE6       30.10F
OMAHA EPPLEY   CLOUDY    65  57  75 S5        30.11F
FALLS CITY     CLOUDY    66  59  78 SE10      30.08F
$$

NEZ044-045-051>053-067-232300-
OMAHA AREA

CITY           SKY/WX    TMP DP  RH WIND       PRES   REMARKS
OMAHA EPPLEY   CLOUDY    65  57  75 S5        30.11F
BLAIR          CLOUDY    63  56  78 E5        30.11F
FREMONT        CLOUDY    62  58  85 E7        30.11F
OFFUTT AFB     CLOUDY    64  59  82 S3        30.10F
$$


USA.gov is the U.S. government's official web portal to all federal, state and local government web resources and services.